Year,Month,Day,Hour,Minute,Value (Times are PST for temperature in C)
2015,06,24,00,00,19.60
2015,06,24,00,01,19.60
2015,06,24,00,02,19.60
2015,06,24,00,03,19.60
2015,06,24,00,04,19.60
2015,06,24,00,05,19.70
2015,06,24,00,06,19.70
2015,06,24,00,07,19.70
2015,06,24,00,08,19.70
2015,06,24,00,09,19.70
2015,06,24,00,10,19.70
2015,06,24,00,11,19.70
2015,06,24,00,12,19.70
2015,06,24,00,13,19.70
2015,06,24,00,14,19.70
2015,06,24,00,15,19.70
2015,06,24,00,16,19.70
2015,06,24,00,17,19.70
2015,06,24,00,18,19.70
2015,06,24,00,19,19.70
2015,06,24,00,20,19.70
2015,06,24,00,21,19.70
2015,06,24,00,22,19.70
2015,06,24,00,23,19.70
2015,06,24,00,24,19.70
2015,06,24,00,25,19.70
2015,06,24,00,26,19.70
2015,06,24,00,27,19.80
2015,06,24,00,28,19.80
2015,06,24,00,29,19.80
2015,06,24,00,30,19.80
2015,06,24,00,31,19.80
2015,06,24,00,32,19.80
2015,06,24,00,33,19.80
2015,06,24,00,34,19.80
2015,06,24,00,35,19.80
2015,06,24,00,36,19.80
2015,06,24,00,37,19.80
2015,06,24,00,38,19.80
2015,06,24,00,39,19.80
2015,06,24,00,40,19.80
2015,06,24,00,41,19.80
2015,06,24,00,42,19.80
2015,06,24,00,43,19.90
2015,06,24,00,44,19.90
2015,06,24,00,45,19.90
2015,06,24,00,46,19.90
2015,06,24,00,47,19.90
2015,06,24,00,48,19.90
2015,06,24,00,49,19.90
2015,06,24,00,50,19.90
2015,06,24,00,51,19.90
2015,06,24,00,52,19.90
2015,06,24,00,53,19.80
2015,06,24,00,54,19.80
2015,06,24,00,55,19.80
2015,06,24,00,56,19.80
2015,06,24,00,57,19.80
2015,06,24,00,58,19.80
2015,06,24,00,59,19.80
2015,06,24,01,00,19.80
2015,06,24,01,01,19.80
2015,06,24,01,02,19.80
2015,06,24,01,03,19.80
2015,06,24,01,04,19.80
2015,06,24,01,05,19.80
2015,06,24,01,06,19.80
2015,06,24,01,07,19.80
2015,06,24,01,08,19.80
2015,06,24,01,09,19.80
2015,06,24,01,10,19.70
2015,06,24,01,11,19.70
2015,06,24,01,12,19.70
2015,06,24,01,13,19.70
2015,06,24,01,14,19.70
2015,06,24,01,15,19.70
2015,06,24,01,16,19.70
2015,06,24,01,17,19.70
2015,06,24,01,18,19.70
2015,06,24,01,19,19.70
2015,06,24,01,20,19.60
2015,06,24,01,21,19.60
2015,06,24,01,22,19.60
2015,06,24,01,23,19.60
2015,06,24,01,24,19.60
2015,06,24,01,25,19.60
2015,06,24,01,26,19.60
2015,06,24,01,27,19.50
2015,06,24,01,28,19.50
2015,06,24,01,29,19.50
2015,06,24,01,30,19.50
2015,06,24,01,31,19.40
2015,06,24,01,32,19.40
2015,06,24,01,33,19.40
2015,06,24,01,34,19.30
2015,06,24,01,35,19.30
2015,06,24,01,36,19.20
2015,06,24,01,37,19.10
2015,06,24,01,38,19.10
2015,06,24,01,39,19.10
2015,06,24,01,40,19.00
2015,06,24,01,41,18.90
2015,06,24,01,42,18.90
2015,06,24,01,43,18.90
2015,06,24,01,44,18.80
2015,06,24,01,45,18.80
2015,06,24,01,46,18.80
2015,06,24,01,47,18.70
2015,06,24,01,48,18.70
2015,06,24,01,49,18.60
2015,06,24,01,50,18.60
2015,06,24,01,51,18.60
2015,06,24,01,52,18.50
2015,06,24,01,53,18.50
2015,06,24,01,54,18.50
2015,06,24,01,55,18.50
2015,06,24,01,56,18.40
2015,06,24,01,57,18.40
2015,06,24,01,58,18.40
2015,06,24,01,59,18.30
2015,06,24,02,00,18.30
2015,06,24,02,01,18.30
2015,06,24,02,02,18.30
2015,06,24,02,03,18.30
2015,06,24,02,04,18.30
2015,06,24,02,05,18.20
2015,06,24,02,06,18.20
2015,06,24,02,07,18.20
2015,06,24,02,08,18.20
2015,06,24,02,09,18.20
2015,06,24,02,10,18.20
2015,06,24,02,11,18.20
2015,06,24,02,12,18.20
2015,06,24,02,13,18.10
2015,06,24,02,14,18.10
2015,06,24,02,15,18.10
2015,06,24,02,16,18.10
2015,06,24,02,17,18.10
2015,06,24,02,18,18.10
2015,06,24,02,19,18.10
2015,06,24,02,20,18.10
2015,06,24,02,21,18.10
2015,06,24,02,22,18.00
2015,06,24,02,23,17.90
2015,06,24,02,24,17.90
2015,06,24,02,25,17.90
2015,06,24,02,26,17.90
2015,06,24,02,27,17.90
2015,06,24,02,28,17.90
2015,06,24,02,29,17.90
2015,06,24,02,30,17.90
2015,06,24,02,31,17.90
2015,06,24,02,32,17.90
2015,06,24,02,33,17.90
2015,06,24,02,34,17.90
2015,06,24,02,35,17.90
2015,06,24,02,36,17.90
2015,06,24,02,37,17.90
2015,06,24,02,38,17.80
2015,06,24,02,39,17.80
2015,06,24,02,40,17.80
2015,06,24,02,41,17.80
2015,06,24,02,42,17.80
2015,06,24,02,43,17.80
2015,06,24,02,44,17.80
2015,06,24,02,45,17.70
2015,06,24,02,46,17.70
2015,06,24,02,47,17.70
2015,06,24,02,48,17.70
2015,06,24,02,49,17.70
2015,06,24,02,50,17.70
2015,06,24,02,51,17.70
2015,06,24,02,52,17.70
2015,06,24,02,53,17.70
2015,06,24,02,54,17.70
2015,06,24,02,55,17.70
2015,06,24,02,56,17.70
2015,06,24,02,57,17.60
2015,06,24,02,58,17.60
2015,06,24,02,59,17.60
2015,06,24,03,00,17.60
2015,06,24,03,01,17.60
2015,06,24,03,02,17.60
2015,06,24,03,03,17.60
2015,06,24,03,04,17.60
2015,06,24,03,05,17.60
2015,06,24,03,06,17.60
2015,06,24,03,07,17.60
2015,06,24,03,08,17.60
2015,06,24,03,09,17.60
2015,06,24,03,10,17.60
2015,06,24,03,11,17.60
2015,06,24,03,12,17.50
2015,06,24,03,13,17.50
2015,06,24,03,14,17.50
2015,06,24,03,15,17.50
2015,06,24,03,16,17.50
2015,06,24,03,17,17.50
2015,06,24,03,18,17.50
2015,06,24,03,19,17.50
2015,06,24,03,20,17.50
2015,06,24,03,21,17.40
2015,06,24,03,22,17.40
2015,06,24,03,23,17.40
2015,06,24,03,24,17.40
2015,06,24,03,25,17.40
2015,06,24,03,26,17.40
2015,06,24,03,27,17.30
2015,06,24,03,28,17.30
2015,06,24,03,29,17.30
2015,06,24,03,30,17.30
2015,06,24,03,31,17.30
2015,06,24,03,32,17.30
2015,06,24,03,33,17.30
2015,06,24,03,34,17.30
2015,06,24,03,35,17.30
2015,06,24,03,36,17.30
2015,06,24,03,37,17.30
2015,06,24,03,38,17.30
2015,06,24,03,39,17.30
2015,06,24,03,40,17.30
2015,06,24,03,41,17.30
2015,06,24,03,42,17.30
2015,06,24,03,43,17.30
2015,06,24,03,44,17.30
2015,06,24,03,45,17.30
2015,06,24,03,46,17.30
2015,06,24,03,47,17.30
2015,06,24,03,48,17.20
2015,06,24,03,49,17.20
2015,06,24,03,50,17.20
2015,06,24,03,51,17.20
2015,06,24,03,52,17.20
2015,06,24,03,53,17.20
2015,06,24,03,54,17.20
2015,06,24,03,55,17.20
2015,06,24,03,56,17.20
2015,06,24,03,57,17.20
2015,06,24,03,58,17.20
2015,06,24,03,59,17.20
2015,06,24,04,00,17.20
2015,06,24,04,01,17.20
2015,06,24,04,02,17.20
2015,06,24,04,03,17.20
2015,06,24,04,04,17.20
2015,06,24,04,05,17.20
2015,06,24,04,06,17.20
2015,06,24,04,07,17.20
2015,06,24,04,08,17.20
2015,06,24,04,09,17.20
2015,06,24,04,10,17.20
2015,06,24,04,11,17.20
2015,06,24,04,12,17.20
2015,06,24,04,13,17.20
2015,06,24,04,14,17.10
2015,06,24,04,15,17.10
2015,06,24,04,16,17.10
2015,06,24,04,17,17.10
2015,06,24,04,18,17.10
2015,06,24,04,19,17.10
2015,06,24,04,20,17.10
2015,06,24,04,21,17.10
2015,06,24,04,22,17.10
2015,06,24,04,23,17.10
2015,06,24,04,24,17.10
2015,06,24,04,25,17.10
2015,06,24,04,26,17.10
2015,06,24,04,27,17.10
2015,06,24,04,28,17.00
2015,06,24,04,29,17.00
2015,06,24,04,30,17.00
2015,06,24,04,31,17.00
2015,06,24,04,32,17.00
2015,06,24,04,33,17.00
2015,06,24,04,34,17.00
2015,06,24,04,35,17.00
2015,06,24,04,36,16.90
2015,06,24,04,37,16.90
2015,06,24,04,38,16.90
2015,06,24,04,39,16.90
2015,06,24,04,40,16.90
2015,06,24,04,41,16.90
2015,06,24,04,42,16.90
2015,06,24,04,43,16.80
2015,06,24,04,44,16.80
2015,06,24,04,45,16.80
2015,06,24,04,46,16.70
2015,06,24,04,47,16.70
2015,06,24,04,48,16.70
2015,06,24,04,49,16.70
2015,06,24,04,50,16.70
2015,06,24,04,51,16.70
2015,06,24,04,52,16.70
2015,06,24,04,53,16.70
2015,06,24,04,54,16.70
2015,06,24,04,55,16.70
2015,06,24,04,56,16.60
2015,06,24,04,57,16.60
2015,06,24,04,58,16.60
2015,06,24,04,59,16.60
2015,06,24,05,00,16.60
2015,06,24,05,01,16.60
2015,06,24,05,02,16.60
2015,06,24,05,03,16.60
2015,06,24,05,04,16.60
2015,06,24,05,05,16.60
2015,06,24,05,06,16.60
2015,06,24,05,07,16.60
2015,06,24,05,08,16.60
2015,06,24,05,09,16.60
2015,06,24,05,10,16.50
2015,06,24,05,11,16.40
2015,06,24,05,12,16.40
2015,06,24,05,13,16.40
2015,06,24,05,14,16.50
2015,06,24,05,15,16.60
2015,06,24,05,16,16.60
2015,06,24,05,17,16.60
2015,06,24,05,18,16.60
2015,06,24,05,19,16.60
2015,06,24,05,20,16.60
2015,06,24,05,21,16.60
2015,06,24,05,22,16.60
2015,06,24,05,23,16.60
2015,06,24,05,24,16.60
2015,06,24,05,25,16.50
2015,06,24,05,26,16.40
2015,06,24,05,27,16.40
2015,06,24,05,28,16.40
2015,06,24,05,29,16.40
2015,06,24,05,30,16.40
2015,06,24,05,31,16.40
2015,06,24,05,32,16.40
2015,06,24,05,33,16.40
2015,06,24,05,34,16.40
2015,06,24,05,35,16.40
2015,06,24,05,36,16.40
2015,06,24,05,37,16.40
2015,06,24,05,38,16.40
2015,06,24,05,39,16.40
2015,06,24,05,40,16.40
2015,06,24,05,41,16.40
2015,06,24,05,42,16.40
2015,06,24,05,43,16.40
2015,06,24,05,44,16.40
2015,06,24,05,45,16.40
2015,06,24,05,46,16.40
2015,06,24,05,47,16.40
2015,06,24,05,48,16.40
2015,06,24,05,49,16.40
2015,06,24,05,50,16.40
2015,06,24,05,51,16.40
2015,06,24,05,52,16.40
2015,06,24,05,53,16.40
2015,06,24,05,54,16.40
2015,06,24,05,55,16.40
2015,06,24,05,56,16.40
2015,06,24,05,57,16.40
2015,06,24,05,58,16.40
2015,06,24,05,59,16.40
2015,06,24,06,00,16.50
2015,06,24,06,01,16.60
2015,06,24,06,02,16.60
2015,06,24,06,03,16.60
2015,06,24,06,04,16.60
2015,06,24,06,05,16.60
2015,06,24,06,06,16.50
2015,06,24,06,07,16.40
2015,06,24,06,08,16.40
2015,06,24,06,09,16.40
2015,06,24,06,10,16.40
2015,06,24,06,11,16.40
2015,06,24,06,12,16.40
2015,06,24,06,13,16.40
2015,06,24,06,14,16.40
2015,06,24,06,15,16.40
2015,06,24,06,16,16.40
2015,06,24,06,17,16.40
2015,06,24,06,18,16.40
2015,06,24,06,19,16.40
2015,06,24,06,20,16.40
2015,06,24,06,21,16.40
2015,06,24,06,22,16.30
2015,06,24,06,23,16.30
2015,06,24,06,24,16.30
2015,06,24,06,25,16.30
2015,06,24,06,26,16.30
2015,06,24,06,27,16.30
2015,06,24,06,28,16.30
2015,06,24,06,29,16.30
2015,06,24,06,30,16.30
2015,06,24,06,31,16.30
2015,06,24,06,32,16.20
2015,06,24,06,33,16.20
2015,06,24,06,34,16.20
2015,06,24,06,35,16.20
2015,06,24,06,36,16.20
2015,06,24,06,37,16.20
2015,06,24,06,38,16.20
2015,06,24,06,39,16.20
2015,06,24,06,40,16.20
2015,06,24,06,41,16.20
2015,06,24,06,42,16.20
2015,06,24,06,43,16.20
2015,06,24,06,44,16.20
2015,06,24,06,45,16.20
2015,06,24,06,46,16.20
2015,06,24,06,47,16.20
2015,06,24,06,48,16.20
2015,06,24,06,49,16.20
2015,06,24,06,50,16.20
2015,06,24,06,51,16.20
2015,06,24,06,52,16.20
2015,06,24,06,53,16.20
2015,06,24,06,54,16.30
2015,06,24,06,55,16.30
2015,06,24,06,56,16.30
2015,06,24,06,57,16.40
2015,06,24,06,58,16.40
2015,06,24,06,59,16.40
2015,06,24,07,00,16.50
2015,06,24,07,01,16.60
2015,06,24,07,02,16.60
2015,06,24,07,03,16.70
2015,06,24,07,04,16.70
2015,06,24,07,05,16.70
2015,06,24,07,06,16.70
2015,06,24,07,07,16.70
2015,06,24,07,08,16.80
2015,06,24,07,09,16.80
2015,06,24,07,10,16.80
2015,06,24,07,11,16.90
2015,06,24,07,12,16.90
2015,06,24,07,13,16.90
2015,06,24,07,14,16.90
2015,06,24,07,15,16.90
2015,06,24,07,16,17.00
2015,06,24,07,17,17.00
2015,06,24,07,18,17.00
2015,06,24,07,19,17.10
2015,06,24,07,20,17.20
2015,06,24,07,21,17.20
2015,06,24,07,22,17.30
2015,06,24,07,23,17.30
2015,06,24,07,24,17.40
2015,06,24,07,25,17.50
2015,06,24,07,26,17.60
2015,06,24,07,27,17.70
2015,06,24,07,28,17.70
2015,06,24,07,29,17.80
2015,06,24,07,30,17.80
2015,06,24,07,31,17.90
2015,06,24,07,32,17.90
2015,06,24,07,33,18.00
2015,06,24,07,34,18.10
2015,06,24,07,35,18.20
2015,06,24,07,36,18.20
2015,06,24,07,37,18.30
2015,06,24,07,38,18.40
2015,06,24,07,39,18.50
2015,06,24,07,40,18.50
2015,06,24,07,41,18.60
2015,06,24,07,42,18.60
2015,06,24,07,43,18.70
2015,06,24,07,44,18.70
2015,06,24,07,45,18.80
2015,06,24,07,46,18.80
2015,06,24,07,47,18.90
2015,06,24,07,48,18.90
2015,06,24,07,49,19.00
2015,06,24,07,50,19.10
2015,06,24,07,51,19.20
2015,06,24,07,52,19.20
2015,06,24,07,53,19.30
2015,06,24,07,54,19.40
2015,06,24,07,55,19.50
2015,06,24,07,56,19.60
2015,06,24,07,57,19.80
2015,06,24,07,58,19.90
2015,06,24,07,59,19.90
2015,06,24,08,00,19.90
2015,06,24,08,01,19.90
2015,06,24,08,02,19.90
2015,06,24,08,03,19.90
2015,06,24,08,04,19.90
2015,06,24,08,05,19.90
2015,06,24,08,06,20.00
2015,06,24,08,07,20.10
2015,06,24,08,08,20.10
2015,06,24,08,09,20.20
2015,06,24,08,10,20.20
2015,06,24,08,11,20.20
2015,06,24,08,12,20.20
2015,06,24,08,13,20.20
2015,06,24,08,14,20.20
2015,06,24,08,15,20.20
2015,06,24,08,16,20.30
2015,06,24,08,17,20.30
2015,06,24,08,18,20.40
2015,06,24,08,19,20.40
2015,06,24,08,20,20.50
2015,06,24,08,21,20.50
2015,06,24,08,22,20.60
2015,06,24,08,23,20.60
2015,06,24,08,24,20.60
2015,06,24,08,25,20.60
2015,06,24,08,26,20.60
2015,06,24,08,27,20.70
2015,06,24,08,28,20.80
2015,06,24,08,29,20.80
2015,06,24,08,30,20.90
2015,06,24,08,31,20.90
2015,06,24,08,32,20.90
2015,06,24,08,33,20.90
2015,06,24,08,34,21.00
2015,06,24,08,35,21.00
2015,06,24,08,36,21.10
2015,06,24,08,37,21.20
2015,06,24,08,38,21.20
2015,06,24,08,39,21.20
2015,06,24,08,40,21.10
2015,06,24,08,41,21.10
2015,06,24,08,42,21.10
2015,06,24,08,43,21.20
2015,06,24,08,44,21.10
2015,06,24,08,45,21.10
2015,06,24,08,46,21.10
2015,06,24,08,47,21.00
2015,06,24,08,48,20.90
2015,06,24,08,49,20.80
2015,06,24,08,50,20.80
2015,06,24,08,51,20.80
2015,06,24,08,52,20.90
2015,06,24,08,53,20.90
2015,06,24,08,54,20.90
2015,06,24,08,55,21.00
2015,06,24,08,56,21.10
2015,06,24,08,57,21.10
2015,06,24,08,58,21.10
2015,06,24,08,59,21.10
2015,06,24,09,00,21.10
2015,06,24,09,01,21.20
2015,06,24,09,02,21.20
2015,06,24,09,03,21.30
2015,06,24,09,04,21.30
2015,06,24,09,05,21.30
2015,06,24,09,06,21.30
2015,06,24,09,07,21.30
2015,06,24,09,08,21.30
2015,06,24,09,09,21.30
2015,06,24,09,10,21.30
2015,06,24,09,11,21.30
2015,06,24,09,12,21.30
2015,06,24,09,13,21.10
2015,06,24,09,14,21.00
2015,06,24,09,15,21.00
2015,06,24,09,16,21.00
2015,06,24,09,17,21.00
2015,06,24,09,18,21.10
2015,06,24,09,19,21.10
2015,06,24,09,20,21.00
2015,06,24,09,21,21.00
2015,06,24,09,22,21.10
2015,06,24,09,23,21.20
2015,06,24,09,24,21.30
2015,06,24,09,25,21.30
2015,06,24,09,26,21.30
2015,06,24,09,27,21.30
2015,06,24,09,28,21.40
2015,06,24,09,29,21.50
2015,06,24,09,30,21.60
2015,06,24,09,31,21.60
2015,06,24,09,32,21.60
2015,06,24,09,33,21.60
2015,06,24,09,34,21.70
2015,06,24,09,35,21.80
2015,06,24,09,36,21.80
2015,06,24,09,37,22.00
2015,06,24,09,38,22.00
2015,06,24,09,39,22.10
2015,06,24,09,40,22.10
2015,06,24,09,41,22.00
2015,06,24,09,42,22.00
2015,06,24,09,43,22.00
2015,06,24,09,44,22.10
2015,06,24,09,45,22.20
2015,06,24,09,46,22.30
2015,06,24,09,47,22.30
2015,06,24,09,48,22.40
2015,06,24,09,49,22.60
2015,06,24,09,50,22.60
2015,06,24,09,51,22.70
2015,06,24,09,52,22.80
2015,06,24,09,53,22.90
2015,06,24,09,54,23.00
2015,06,24,09,55,23.10
2015,06,24,09,56,23.20
2015,06,24,09,57,23.30
2015,06,24,09,58,23.30
2015,06,24,09,59,23.40
2015,06,24,10,00,23.40
2015,06,24,10,01,23.40
2015,06,24,10,02,23.40
2015,06,24,10,03,23.30
2015,06,24,10,04,23.30
2015,06,24,10,05,23.30
2015,06,24,10,06,23.30
2015,06,24,10,07,23.30
2015,06,24,10,08,23.20
2015,06,24,10,09,23.20
2015,06,24,10,10,23.10
2015,06,24,10,11,23.00
2015,06,24,10,12,22.90
2015,06,24,10,13,22.80
2015,06,24,10,14,22.70
2015,06,24,10,15,22.70
2015,06,24,10,16,22.70
2015,06,24,10,17,22.80
2015,06,24,10,18,22.70
2015,06,24,10,19,22.80
2015,06,24,10,20,22.80
2015,06,24,10,21,22.80
2015,06,24,10,22,22.80
2015,06,24,10,23,22.90
2015,06,24,10,24,22.90
2015,06,24,10,25,22.90
2015,06,24,10,26,23.00
2015,06,24,10,27,23.10
2015,06,24,10,28,23.10
2015,06,24,10,29,23.10
2015,06,24,10,30,23.00
2015,06,24,10,31,22.90
2015,06,24,10,32,22.90
2015,06,24,10,33,22.90
2015,06,24,10,34,22.90
2015,06,24,10,35,22.90
2015,06,24,10,36,22.90
2015,06,24,10,37,22.90
2015,06,24,10,38,23.00
2015,06,24,10,39,23.10
2015,06,24,10,40,23.00
2015,06,24,10,41,22.90
2015,06,24,10,42,22.80
2015,06,24,10,43,22.60
2015,06,24,10,44,22.50
2015,06,24,10,45,22.40
2015,06,24,10,46,22.50
2015,06,24,10,47,22.40
2015,06,24,10,48,22.40
2015,06,24,10,49,22.30
2015,06,24,10,50,22.20
2015,06,24,10,51,22.20
2015,06,24,10,52,22.20
2015,06,24,10,53,22.00
2015,06,24,10,54,22.00
2015,06,24,10,55,22.00
2015,06,24,10,56,21.90
2015,06,24,10,57,21.90
2015,06,24,10,58,21.80
2015,06,24,10,59,21.80
2015,06,24,11,00,21.80
2015,06,24,11,01,21.70
2015,06,24,11,02,21.60
2015,06,24,11,03,21.60
2015,06,24,11,04,21.60
2015,06,24,11,05,21.60
2015,06,24,11,06,21.60
2015,06,24,11,07,21.50
2015,06,24,11,08,21.50
2015,06,24,11,09,21.60
2015,06,24,11,10,21.40
2015,06,24,11,11,21.50
2015,06,24,11,12,21.40
2015,06,24,11,13,21.50
2015,06,24,11,14,21.60
2015,06,24,11,15,21.60
2015,06,24,11,16,21.60
2015,06,24,11,17,21.60
2015,06,24,11,18,21.60
2015,06,24,11,19,21.60
2015,06,24,11,20,21.50
2015,06,24,11,21,21.50
2015,06,24,11,22,21.60
2015,06,24,11,23,21.60
2015,06,24,11,24,21.60
2015,06,24,11,25,21.60
2015,06,24,11,26,21.60
2015,06,24,11,27,21.60
2015,06,24,11,28,21.60
2015,06,24,11,29,21.60
2015,06,24,11,30,21.60
2015,06,24,11,31,21.60
2015,06,24,11,32,21.60
2015,06,24,11,33,21.70
2015,06,24,11,34,21.70
2015,06,24,11,35,21.70
2015,06,24,11,36,21.70
2015,06,24,11,37,21.80
2015,06,24,11,38,21.90
2015,06,24,11,39,22.00
2015,06,24,11,40,22.00
2015,06,24,11,41,21.90
2015,06,24,11,42,21.90
2015,06,24,11,43,21.90
2015,06,24,11,44,21.90
2015,06,24,11,45,22.00
2015,06,24,11,46,21.90
2015,06,24,11,47,22.00
2015,06,24,11,48,22.00
2015,06,24,11,49,22.10
2015,06,24,11,50,22.10
2015,06,24,11,51,22.00
2015,06,24,11,52,22.00
2015,06,24,11,53,22.10
2015,06,24,11,54,22.10
2015,06,24,11,55,22.20
2015,06,24,11,56,22.20
2015,06,24,11,57,22.30
2015,06,24,11,58,22.30
2015,06,24,11,59,22.30
2015,06,24,12,00,22.40
2015,06,24,12,01,22.40
2015,06,24,12,02,22.30
2015,06,24,12,03,22.20
2015,06,24,12,04,22.20
2015,06,24,12,05,22.20
2015,06,24,12,06,22.30
2015,06,24,12,07,22.30
2015,06,24,12,08,22.40
2015,06,24,12,09,22.40
2015,06,24,12,10,22.50
2015,06,24,12,11,22.50
2015,06,24,12,12,22.50
2015,06,24,12,13,22.50
2015,06,24,12,14,22.40
2015,06,24,12,15,22.40
2015,06,24,12,16,22.30
2015,06,24,12,17,22.30
2015,06,24,12,18,22.30
2015,06,24,12,19,22.30
2015,06,24,12,20,22.30
2015,06,24,12,21,22.20
2015,06,24,12,22,22.20
2015,06,24,12,23,22.20
2015,06,24,12,24,22.10
2015,06,24,12,25,22.10
2015,06,24,12,26,22.10
2015,06,24,12,27,22.00
2015,06,24,12,28,22.00
2015,06,24,12,29,22.00
2015,06,24,12,30,22.00
2015,06,24,12,31,22.00
2015,06,24,12,32,22.00
2015,06,24,12,33,22.00
2015,06,24,12,34,22.00
2015,06,24,12,35,21.90
2015,06,24,12,36,21.90
2015,06,24,12,37,21.90
2015,06,24,12,38,21.90
2015,06,24,12,39,21.90
2015,06,24,12,40,21.90
2015,06,24,12,41,21.80
2015,06,24,12,42,21.80
2015,06,24,12,43,21.80
2015,06,24,12,44,21.80
2015,06,24,12,45,21.80
2015,06,24,12,46,21.80
2015,06,24,12,47,21.80
2015,06,24,12,48,21.90
2015,06,24,12,49,21.90
2015,06,24,12,50,21.90
2015,06,24,12,51,21.80
2015,06,24,12,52,21.80
2015,06,24,12,53,21.70
2015,06,24,12,54,21.60
2015,06,24,12,55,21.60
2015,06,24,12,56,21.60
2015,06,24,12,57,21.60
2015,06,24,12,58,21.60
2015,06,24,12,59,21.60
2015,06,24,13,00,21.60
2015,06,24,13,01,21.60
2015,06,24,13,02,21.60
2015,06,24,13,03,21.60
2015,06,24,13,04,21.50
2015,06,24,13,05,21.50
2015,06,24,13,06,21.60
2015,06,24,13,07,21.60
2015,06,24,13,08,21.60
2015,06,24,13,09,21.60
2015,06,24,13,10,21.60
2015,06,24,13,11,21.60
2015,06,24,13,12,21.60
2015,06,24,13,13,21.70
2015,06,24,13,14,21.60
2015,06,24,13,15,21.60
2015,06,24,13,16,21.60
2015,06,24,13,17,21.60
2015,06,24,13,18,21.60
2015,06,24,13,19,21.50
2015,06,24,13,20,21.40
2015,06,24,13,21,21.40
2015,06,24,13,22,21.30
2015,06,24,13,23,21.30
2015,06,24,13,24,21.30
2015,06,24,13,25,21.40
2015,06,24,13,26,21.40
2015,06,24,13,27,21.40
2015,06,24,13,28,21.40
2015,06,24,13,29,21.40
2015,06,24,13,30,21.50
2015,06,24,13,31,21.60
2015,06,24,13,32,21.60
2015,06,24,13,33,21.60
2015,06,24,13,34,21.60
2015,06,24,13,35,21.60
2015,06,24,13,36,21.60
2015,06,24,13,37,21.60
2015,06,24,13,38,21.60
2015,06,24,13,39,21.60
2015,06,24,13,40,21.60
2015,06,24,13,41,21.60
2015,06,24,13,42,21.60
2015,06,24,13,43,21.60
2015,06,24,13,44,21.60
2015,06,24,13,45,21.60
2015,06,24,13,46,21.60
2015,06,24,13,47,21.60
2015,06,24,13,48,21.70
2015,06,24,13,49,21.70
2015,06,24,13,50,21.60
2015,06,24,13,51,21.60
2015,06,24,13,52,21.60
2015,06,24,13,53,21.60
2015,06,24,13,54,21.60
2015,06,24,13,55,21.60
2015,06,24,13,56,21.60
2015,06,24,13,57,21.50
2015,06,24,13,58,21.40
2015,06,24,13,59,21.50
2015,06,24,14,00,21.50
2015,06,24,14,01,21.50
2015,06,24,14,02,21.40
2015,06,24,14,03,21.40
2015,06,24,14,04,21.40
2015,06,24,14,05,21.40
2015,06,24,14,06,21.40
2015,06,24,14,07,21.40
2015,06,24,14,08,21.50
2015,06,24,14,09,21.60
2015,06,24,14,10,21.60
2015,06,24,14,11,21.60
2015,06,24,14,12,21.60
2015,06,24,14,13,21.60
2015,06,24,14,14,21.60
2015,06,24,14,15,21.60
2015,06,24,14,16,21.70
2015,06,24,14,17,21.80
2015,06,24,14,18,21.90
2015,06,24,14,19,22.00
2015,06,24,14,20,22.10
2015,06,24,14,21,22.10
2015,06,24,14,22,22.10
2015,06,24,14,23,22.10
2015,06,24,14,24,22.10
2015,06,24,14,25,22.10
2015,06,24,14,26,22.20
2015,06,24,14,27,22.20
2015,06,24,14,28,22.30
2015,06,24,14,29,22.30
2015,06,24,14,30,22.40
2015,06,24,14,31,22.40
2015,06,24,14,32,22.50
2015,06,24,14,33,22.60
2015,06,24,14,34,22.60
2015,06,24,14,35,22.60
2015,06,24,14,36,22.60
2015,06,24,14,37,22.60
2015,06,24,14,38,22.40
2015,06,24,14,39,22.30
2015,06,24,14,40,22.30
2015,06,24,14,41,22.30
2015,06,24,14,42,22.30
2015,06,24,14,43,22.40
2015,06,24,14,44,22.40
2015,06,24,14,45,22.40
2015,06,24,14,46,22.30
2015,06,24,14,47,22.30
2015,06,24,14,48,22.30
2015,06,24,14,49,22.30
2015,06,24,14,50,22.30
2015,06,24,14,51,22.30
2015,06,24,14,52,22.30
2015,06,24,14,53,22.30
2015,06,24,14,54,22.30
2015,06,24,14,55,22.30
2015,06,24,14,56,22.30
2015,06,24,14,57,22.30
2015,06,24,14,58,22.30
2015,06,24,14,59,22.30
2015,06,24,15,00,22.30
2015,06,24,15,01,22.30
2015,06,24,15,02,22.30
2015,06,24,15,03,22.30
2015,06,24,15,04,22.40
2015,06,24,15,05,22.50
2015,06,24,15,06,22.50
2015,06,24,15,07,22.50
2015,06,24,15,08,22.50
2015,06,24,15,09,22.60
2015,06,24,15,10,22.60
2015,06,24,15,11,22.70
2015,06,24,15,12,22.70
2015,06,24,15,13,22.70
2015,06,24,15,14,22.60
2015,06,24,15,15,22.50
2015,06,24,15,16,22.50
2015,06,24,15,17,22.40
2015,06,24,15,18,22.40
2015,06,24,15,19,22.50
2015,06,24,15,20,22.50
2015,06,24,15,21,22.50
2015,06,24,15,22,22.50
2015,06,24,15,23,22.50
2015,06,24,15,24,22.50
2015,06,24,15,25,22.50
2015,06,24,15,26,22.50
2015,06,24,15,27,22.50
2015,06,24,15,28,22.50
2015,06,24,15,29,22.60
2015,06,24,15,30,22.60
2015,06,24,15,31,22.70
2015,06,24,15,32,22.90
2015,06,24,15,33,23.00
2015,06,24,15,34,23.10
2015,06,24,15,35,23.20
2015,06,24,15,36,23.20
2015,06,24,15,37,23.30
2015,06,24,15,38,23.40
2015,06,24,15,39,23.50
2015,06,24,15,40,23.50
2015,06,24,15,41,23.40
2015,06,24,15,42,23.40
2015,06,24,15,43,23.40
2015,06,24,15,44,23.40
2015,06,24,15,45,23.30
2015,06,24,15,46,23.20
2015,06,24,15,47,23.20
2015,06,24,15,48,23.20
2015,06,24,15,49,23.20
2015,06,24,15,50,23.30
2015,06,24,15,51,23.30
2015,06,24,15,52,23.30
2015,06,24,15,53,23.30
2015,06,24,15,54,23.30
2015,06,24,15,55,23.40
2015,06,24,15,56,23.40
2015,06,24,15,57,23.40
2015,06,24,15,58,23.60
2015,06,24,15,59,23.60
2015,06,24,16,00,23.50
2015,06,24,16,01,23.40
2015,06,24,16,02,23.40
2015,06,24,16,03,23.30
2015,06,24,16,04,23.30
2015,06,24,16,05,23.30
2015,06,24,16,06,23.40
2015,06,24,16,07,23.50
2015,06,24,16,08,23.60
2015,06,24,16,09,23.70
2015,06,24,16,10,23.70
2015,06,24,16,11,23.80
2015,06,24,16,12,23.90
2015,06,24,16,13,23.80
2015,06,24,16,14,23.80
2015,06,24,16,15,23.90
2015,06,24,16,16,24.00
2015,06,24,16,17,24.10
2015,06,24,16,18,24.20
2015,06,24,16,19,24.20
2015,06,24,16,20,24.20
2015,06,24,16,21,24.20
2015,06,24,16,22,24.20
2015,06,24,16,23,24.10
2015,06,24,16,24,24.10
2015,06,24,16,25,24.00
2015,06,24,16,26,23.90
2015,06,24,16,27,23.80
2015,06,24,16,28,23.70
2015,06,24,16,29,23.60
2015,06,24,16,30,23.50
2015,06,24,16,31,23.40
2015,06,24,16,32,23.40
2015,06,24,16,33,23.30
2015,06,24,16,34,23.40
2015,06,24,16,35,23.40
2015,06,24,16,36,23.30
2015,06,24,16,37,23.40
2015,06,24,16,38,23.40
2015,06,24,16,39,23.40
2015,06,24,16,40,23.50
2015,06,24,16,41,23.60
2015,06,24,16,42,23.60
2015,06,24,16,43,23.50
2015,06,24,16,44,23.40
2015,06,24,16,45,23.30
2015,06,24,16,46,23.30
2015,06,24,16,47,23.30
2015,06,24,16,48,23.30
2015,06,24,16,49,23.30
2015,06,24,16,50,23.20
2015,06,24,16,51,23.10
2015,06,24,16,52,23.10
2015,06,24,16,53,23.00
2015,06,24,16,54,22.90
2015,06,24,16,55,22.90
2015,06,24,16,56,22.90
2015,06,24,16,57,22.90
2015,06,24,16,58,22.90
2015,06,24,16,59,23.10
2015,06,24,17,00,23.10
2015,06,24,17,01,23.10
2015,06,24,17,02,23.20
2015,06,24,17,03,23.20
2015,06,24,17,04,23.30
2015,06,24,17,05,23.30
2015,06,24,17,06,23.30
2015,06,24,17,07,23.30
2015,06,24,17,08,23.30
2015,06,24,17,09,23.30
2015,06,24,17,10,23.30
2015,06,24,17,11,23.30
2015,06,24,17,12,23.30
2015,06,24,17,13,23.30
2015,06,24,17,14,23.30
2015,06,24,17,15,23.40
2015,06,24,17,16,23.40
2015,06,24,17,17,23.50
2015,06,24,17,18,23.50
2015,06,24,17,19,23.60